PSLV R/B

Last updated on March 1, 2021, 12:02 a.m. UTC

1 47700U 21015B   21059.44723061 -.00000067  00000-0  00000+0 0  9994
2 47700  97.3846 134.6841 0043038 245.5755 127.2524 15.12576467    35
UTC
Height (km)
Latitude
Longitude
Inclination
Orbital Period
UTC large
Height (km)
Speed (km/s)
/
Latitude / Longitude
Inclination (degrees)
Orbital Period (minutes)
Azimuth
Elevation
Range (km)
Doppler Factor
iOS Compass Heading
iOS Angle